Location: Saint Mary
(48.7436°N, 113.4291°W)
Time: 23:16:26
(UTC+00:00)

BlueWalker 3 - Visible Passes

Search period start: 04 December 2022 00:00
Search period end: 14 December 2022 00:00
Orbit: 501 x 519 km, 53.2° (Epoch: 04 December)

Date Brightness Start Highest point End Pass type
(mag) Time Alt. Az. Time Alt. Az. Time Alt. Az.
04 Dec 2.6 01:13:18 10° WNW 01:17:03 42° N 01:18:28 30° NE visible
04 Dec 4.5 02:52:08 10° WNW 02:53:17 19° WNW 02:53:17 19° WNW visible
05 Dec 2.5 00:54:55 10° WNW 00:58:41 42° N 01:00:52 21° ENE visible
05 Dec 3.8 02:33:44 10° WNW 02:35:42 28° WNW 02:35:42 28° WNW visible
06 Dec 2.5 00:36:32 10° WNW 00:40:18 43° N 00:43:20 15° ENE visible
06 Dec 2.9 02:15:21 10° WNW 02:18:10 45° WNW 02:18:10 45° WNW visible
07 Dec 2.5 00:18:09 10° WNW 00:21:55 43° N 00:25:40 10° E visible
07 Dec 1.9 01:56:57 10° WNW 02:00:42 81° WNW 02:00:42 81° WNW visible
08 Dec 1.9 01:38:33 10° WNW 01:42:29 87° SSW 01:43:21 53° ESE visible
08 Dec 5.3 03:17:51 10° W 03:18:12 12° W 03:18:12 12° W visible
09 Dec 1.9 01:20:09 10° WNW 01:24:04 83° SSW 01:26:08 26° ESE visible
09 Dec 4.8 02:59:30 10° W 03:01:00 16° WSW 03:01:00 16° WSW visible
10 Dec 2.0 01:01:44 10° WNW 01:05:40 80° SSW 01:09:06 13° ESE visible
10 Dec 4.4 02:41:10 10° W 02:43:50 18° SW 02:43:59 18° SW visible
11 Dec 2.1 00:43:19 10° WNW 00:47:14 77° SSW 00:51:07 10° ESE visible
11 Dec 4.6 02:22:51 10° W 02:25:23 17° SW 02:27:17 12° SSW visible
12 Dec 2.2 00:24:54 10° WNW 00:28:50 73° SSW 00:32:42 10° SE visible
12 Dec 4.8 02:04:31 10° W 02:06:56 16° SW 02:09:19 10° S visible
13 Dec 2.3 00:06:29 10° WNW 00:10:23 70° SSW 00:14:15 10° SE visible
13 Dec 4.9 01:46:13 10° W 01:48:28 15° SW 01:50:43 10° SSW visible
